RADUGA 13 [-]

Last updated on Nov. 11, 2019, 4:17 a.m. UTC

1 14307U 83088A   19314.82034997 -.00000192  00000-0  00000+0 0  9994
2 14307  13.9300 332.8710 0019356   9.1874 350.5215  0.98175458 95271
UTC
Height (km)
Latitude
Longitude
Inclination
Orbital Period
UTC large
Height (km)
Speed (km/s)
/
Latitude / Longitude
Inclination (degrees)
Orbital Period (minutes)
Azimuth
Elevation
Range (km)
Doppler Factor
iOS Compass Heading
iOS Angle

Next 30 passes for location: Hong Kong

Rise time Rise Azimuth (degrees) Set time Set Azimuth (degrees) Duration Max altitude (degrees)

No matching passes for this satellites